TimeCEST,TemperatureF,Dew PointF,Humidity,Sea Level PressureIn,VisibilityMPH,Wind Direction,Wind SpeedMPH,Gust SpeedMPH,PrecipitationIn,Events,Conditions,WindDirDegrees,DateUTC
12:00 AM,50.0,48.2,94,30.06,-9999.0,WNW,8.1,-,N/A,,Clear,300,2012-10-02 22:00:00
1:00 AM,50.0,46.4,87,30.06,-9999.0,NW,5.8,-,N/A,,Clear,320,2012-10-02 23:00:00
2:00 AM,48.2,46.4,93,30.06,-9999.0,NW,8.1,-,N/A,,Clear,320,2012-10-03 00:00:00
3:00 AM,48.2,44.6,87,30.04,-9999.0,NW,3.5,-,N/A,,Clear,310,2012-10-03 01:00:00
4:00 AM,46.4,44.6,93,30.06,-9999.0,NNW,5.8,-,N/A,,Clear,330,2012-10-03 02:00:00
5:00 AM,48.2,44.6,87,30.04,-9999.0,NNW,5.8,-,N/A,,Clear,330,2012-10-03 03:00:00
6:00 AM,48.2,44.6,87,30.06,-9999.0,NNW,5.8,-,N/A,,Clear,330,2012-10-03 04:00:00
7:00 AM,46.4,42.8,87,30.06,-9999.0,NNW,3.5,-,N/A,,Clear,330,2012-10-03 05:00:00
8:00 AM,46.4,42.8,87,30.06,-9999.0,WNW,6.9,-,N/A,,Clear,300,2012-10-03 06:00:00
9:00 AM,50.0,44.6,82,30.06,-9999.0,NW,8.1,-,N/A,,Clear,310,2012-10-03 07:00:00
10:00 AM,55.4,46.4,72,30.06,-9999.0,NW,4.6,-,N/A,,Clear,320,2012-10-03 08:00:00
11:00 AM,59.0,48.2,67,30.06,-9999.0,WNW,6.9,-,N/A,,Clear,290,2012-10-03 09:00:00
12:00 PM,62.6,44.6,52,30.06,-9999.0,West,10.4,-,N/A,,Clear,280,2012-10-03 10:00:00
1:00 PM,64.4,42.8,45,30.06,-9999.0,WNW,8.1,-,N/A,,Clear,290,2012-10-03 11:00:00
2:00 PM,66.2,41.0,40,30.04,-9999.0,SW,5.8,-,N/A,,Clear,220,2012-10-03 12:00:00
3:00 PM,68.0,42.8,40,30.04,-9999.0,West,8.1,-,N/A,,Clear,260,2012-10-03 13:00:00
4:00 PM,68.0,42.8,40,30.04,-9999.0,West,8.1,-,N/A,,Clear,260,2012-10-03 14:00:00
5:00 PM,68.0,44.6,43,30.04,-9999.0,WSW,8.1,-,N/A,,Clear,240,2012-10-03 15:00:00
6:00 PM,64.4,44.6,49,30.04,-9999.0,SW,5.8,-,N/A,,Clear,230,2012-10-03 16:00:00
7:00 PM,60.8,44.6,55,30.04,-9999.0,SW,4.6,-,N/A,,Clear,230,2012-10-03 17:00:00
8:00 PM,59.0,44.6,59,30.04,-9999.0,WSW,3.5,-,N/A,,Clear,240,2012-10-03 18:00:00
9:00 PM,57.2,46.4,67,30.04,-9999.0,WSW,4.6,-,N/A,,Clear,250,2012-10-03 19:00:00
10:00 PM,57.2,46.4,67,30.04,-9999.0,SW,1.2,-,N/A,,Clear,230,2012-10-03 20:00:00
11:00 PM,55.4,46.4,72,30.04,-9999.0,WSW,4.6,-,N/A,,Clear,250,2012-10-03 21:00:00